HST
1 20580U 90037B   24100.64535772  .00005417  00000-0  25990-3 0  9995
2 20580  28.4685  83.9975 0002400   9.1066 350.9569 15.16646611666618
ISS (ZARYA)
1 25544U 98067A   24101.03904484  .00012558  00000-0  22725-3 0  9992
2 25544  51.6391 293.2963 0004827  53.6203  54.5347 15.50046419447975
CXO
1 25867U 99040B   24101.75442889  .00000852  00000-0  00000-0 0  9990
2 25867  39.7258 160.4924 8952487 291.5303   0.1634  0.37813076 14314